Location: Newark
(6.1731°S, 35.7419°E)
Time: 05:12:39
(UTC+00:00)

Vanguard 2 - All Passes

Search period start: 27 February 2020 00:00
Search period end: 08 March 2020 00:00
Orbit: 552 x 2939 km, 32.9° (Epoch: 26 February)

Date Brightness Start Highest point End Pass type
(mag) Time Alt. Az. Time Alt. Az. Time Alt. Az.
27 Feb - 04:16:12 10° NNW 04:30:01 31° NE 04:44:23 10° E daylight
27 Feb - 06:25:41 10° NW 06:43:41 74° NE 06:58:45 10° ESE daylight
27 Feb - 08:39:50 10° WNW 08:56:23 50° SW 09:08:07 10° SE daylight
27 Feb - 11:00:28 10° WSW 11:08:41 18° SSW 11:15:00 10° SSE daylight
27 Feb - 17:38:33 10° SW 17:42:39 70° SE 17:46:43 10° ENE visible
27 Feb - 19:49:48 10° NW 19:51:14 11° NNW 19:52:45 10° N night (unlit)
28 Feb - 02:28:13 10° N 02:34:12 13° NNE 02:40:45 10° NE visible
28 Feb - 04:33:22 10° NNW 04:48:29 41° NE 05:04:02 10° E daylight
28 Feb - 06:43:42 10° NW 07:01:53 90° SW 07:16:54 10° SE daylight
28 Feb - 08:59:15 10° W 09:14:38 40° SSW 09:25:44 10° SE daylight
28 Feb - 11:21:25 10° SW 11:27:29 15° SSW 11:32:23 10° S daylight
28 Feb - 15:48:44 10° SSW 15:51:54 16° SSE 15:54:37 10° ESE daylight
28 Feb - 17:56:32 10° WSW 18:00:31 53° NW 18:04:32 10° NE visible
29 Feb - 02:43:58 10° N 02:53:08 18° NNE 03:03:36 10° ENE visible
29 Feb - 04:50:44 10° NW 05:06:47 52° NE 05:23:08 10° ESE daylight
29 Feb - 07:02:01 10° WNW 07:20:05 74° SW 07:34:50 10° SE daylight
29 Feb - 09:19:07 10° W 09:33:03 32° SSW 09:43:19 10° SSE daylight
29 Feb - 11:42:20 10° SW 11:46:27 12° SSW 11:49:59 10° S daylight
29 Feb - 16:05:50 10° SSW 16:10:09 27° SSE 16:13:39 10° E daylight
29 Feb - 18:15:01 10° W 18:18:24 25° NW 18:21:52 10° NNE visible
01 Mar - 03:00:30 10° NNW 03:11:46 25° NE 03:24:53 10° E visible
01 Mar - 05:08:19 10° NW 05:25:00 65° NE 05:41:48 10° ESE daylight
01 Mar - 07:20:40 10° WNW 07:38:19 60° SW 07:52:39 10° SE daylight
01 Mar - 09:39:24 10° WSW 09:51:41 25° SSW 10:00:55 10° SSE daylight
01 Mar - 12:02:39 10° SSW 12:05:30 11° S 12:08:04 10° S daylight
01 Mar - 14:15:32 10° SSW 14:18:13 12° SSE 14:20:32 10° SE daylight
01 Mar - 16:23:22 10° SW 16:28:14 50° SSE 16:32:06 10° ENE visible
01 Mar - 18:34:27 10° WNW 18:36:21 13° NNW 18:38:17 10° N visible
02 Mar - 03:17:23 10° NNW 03:30:08 33° NE 03:45:10 10° E visible
02 Mar - 05:26:06 10° NW 05:43:11 81° NE 06:00:11 10° ESE daylight
02 Mar - 07:39:42 10° WNW 07:56:40 48° SSW 08:10:23 10° SE daylight
02 Mar - 09:59:59 10° WSW 10:10:32 21° SSW 10:18:40 10° SSE daylight
02 Mar - 12:21:40 10° SSW 12:24:36 11° S 12:27:13 10° SSE daylight
02 Mar - 14:32:23 10° SSW 14:36:50 18° SSE 14:40:18 10° ESE daylight
02 Mar - 16:41:14 10° WSW 16:46:09 80° NW 16:50:05 10° NE visible
03 Mar - 01:30:48 10° NNE 01:35:32 12° NE 01:40:48 10° NE visible
03 Mar - 03:34:32 10° NNW 03:48:20 44° NE 04:04:44 10° ESE daylight
03 Mar - 05:44:09 10° WNW 06:01:23 84° SW 06:18:18 10° SE daylight
03 Mar - 07:59:08 10° W 08:15:10 39° SSW 08:28:06 10° SE daylight
03 Mar - 10:20:37 10° SW 10:29:35 18° SSW 10:36:38 10° SSE daylight
03 Mar - 12:39:37 10° SSW 12:43:39 13° S 12:47:01 10° SSE daylight
03 Mar - 14:49:40 10° SSW 14:55:17 27° SSE 14:59:19 10° E daylight
03 Mar - 16:59:31 10° WSW 17:03:57 38° NW 17:07:39 10° NNE visible
04 Mar - 01:46:04 10° N 01:54:05 18° NE 02:03:48 10° ENE visible
04 Mar - 03:51:55 10° NW 04:06:26 56° NE 04:23:46 10° ESE daylight
04 Mar - 06:02:29 10° WNW 06:19:39 69° SW 06:36:16 10° SE daylight
04 Mar - 08:18:59 10° W 08:33:51 32° SSW 08:45:52 10° SSE daylight
04 Mar - 10:40:58 10° SW 10:48:46 16° S 10:54:59 10° SSE daylight
04 Mar - 12:57:14 10° SSW 13:02:34 16° S 13:06:44 10° SE daylight
04 Mar - 15:07:14 10° SW 15:13:33 43° SSE 15:17:52 10° E daylight
04 Mar - 17:18:25 10° W 17:21:42 19° NW 17:24:37 10° N visible
05 Mar - 02:02:28 10° NNW 02:12:23 26° NE 02:25:01 10° E visible
05 Mar - 04:09:30 10° NW 04:24:31 71° NE 04:42:26 10° ESE daylight
05 Mar - 06:21:10 10° WNW 06:38:03 56° SSW 06:54:08 10° SE daylight
05 Mar - 08:39:13 10° WSW 08:52:47 27° SSW 09:03:45 10° SSE daylight
05 Mar - 11:00:41 10° SW 11:08:01 16° S 11:13:50 10° SSE daylight
05 Mar - 13:14:46 10° SSW 13:21:22 21° SSE 13:26:07 10° ESE daylight
05 Mar - 15:25:04 10° SW 15:31:37 75° SSE 15:36:00 10° ENE daylight
06 Mar - 02:19:19 10° NNW 02:30:27 35° NE 02:45:12 10° E visible
06 Mar - 04:27:20 10° NW 04:42:38 87° NE 05:00:46 10° SE daylight
06 Mar - 06:40:13 10° W 06:56:37 46° SSW 07:11:58 10° SE daylight
06 Mar - 08:59:37 10° WSW 09:11:56 23° SSW 09:21:51 10° SSE daylight
06 Mar - 11:19:40 10° SW 11:27:14 17° S 11:33:04 10° SE daylight
06 Mar - 13:32:22 10° SW 13:40:00 28° SSE 13:45:07 10° ESE daylight
06 Mar - 15:43:13 10° WSW 15:49:29 61° NW 15:53:46 10° NE daylight
07 Mar - 00:34:24 10° NNE 00:37:07 11° NE 00:40:06 10° NE visible
07 Mar - 02:36:27 10° NNW 02:48:25 46° NE 03:04:41 10° ESE visible
07 Mar - 04:45:24 10° WNW 05:00:52 78° SW 05:18:54 10° SE daylight
07 Mar - 06:59:38 10° W 07:15:22 38° SSW 07:29:50 10° SE daylight
07 Mar - 09:19:58 10° SW 09:31:14 21° S 09:40:16 10° SSE daylight
07 Mar - 11:38:04 10° SW 11:46:21 20° S 11:52:28 10° SE daylight
07 Mar - 13:50:02 10° SW 13:58:27 41° SSE 14:03:44 10° E daylight
07 Mar - 16:01:48 10° WSW 16:07:10 32° NW 16:11:06 10° NNE daylight
